DL6ABE-13 Weather Reports


Display with metric or nautical units.
time (UTC)temp
F
wind
direction
speed
MPH
gust
MPH
rain 1hr
in
rain 24hr
in
rain mn
in
humidity
%
barometer
mb
20260506001636 55 0.0 0.0 0.00 0.00 0.00 89 1003.6
20260506000718 55 0.0 0.0 0.00 0.00 0.00 89 1003.6
20260505235634 55 0.0 0.0 0.00 0.00 0.00 89 1003.7
20260505234631 56 0.0 0.0 0.00 0.00 0.00 89 1003.8
20260505233627 56 0.0 0.0 0.00 0.00 0.00 89 1003.9
20260505232628 56 0.0 0.0 0.00 0.00 0.00 89 1003.8
20260505231624 56 0.0 0.0 0.00 0.00 0.00 89 1004.0
20260505230621 56 0.0 0.0 0.00 0.00 0.00 89 1004.0
20260505225619 56 0.0 0.0 0.00 0.00 0.00 89 1004.1
20260505224616 55 0.0 0.0 0.00 0.00 0.00 89 1004.1
20260505223617 55 0.0 0.0 0.00 0.00 0.00 89 1004.1
20260505222635 55 0.0 0.0 0.00 0.00 0.00 89 1004.1
20260505221742 55 0.0 0.0 0.00 0.00 0.00 89 1004.1
20260505220609 55 0.0 0.0 0.00 0.00 0.00 89 1004.0
20260505215628 56 0.0 0.0 0.00 0.00 0.00 89 1003.9
20260505214628 56 0.0 0.0 0.00 0.00 0.00 89 1004.0
20260505213604 56 0.0 0.0 0.00 0.00 0.00 89 1004.0
20260505212602 56 0.0 0.0 0.00 0.00 0.00 88 1004.0
20260505211601 57 0.0 0.0 0.00 0.00 0.00 88 1004.0
20260505210558 57 0.0 0.0 0.00 0.00 0.00 88 1004.0
20260505205558 57 0.0 0.0 0.00 0.00 0.00 88 1003.9
20260505204555 57 0.0 0.0 0.00 0.00 0.00 88 1003.9
20260505203552 58 0.0 0.0 0.00 0.00 0.00 88 1004.0
20260505202549 58 0.0 0.0 0.00 0.00 0.00 88 1003.8
20260505201547 58 0.0 0.0 0.00 0.00 0.00 88 1003.8
20260505200545 58 0.0 0.0 0.00 0.00 0.00 88 1003.7
20260505195545 58 0.0 0.0 0.00 0.00 0.00 88 1003.6
20260505194543 58 0.0 0.0 0.00 0.00 0.00 88 1003.5
20260505193602 58 0.0 0.0 0.00 0.00 0.00 87 1003.6
20260505192538 59 0.0 0.0 0.00 0.00 0.00 87 1003.6
20260505191536 59 0.0 0.0 0.00 0.00 0.00 87 1003.5
20260505190535 59 0.0 0.0 0.00 0.00 0.00 87 1003.4
20260505185533 60 0.0 0.0 0.00 0.00 0.00 86 1003.5
20260505184531 60 0.0 0.0 0.00 0.00 0.00 86 1003.5
20260505183550 60 0.0 0.0 0.00 0.00 0.00 86 1003.5
20260505182628 60 0.0 0.0 0.00 0.00 0.00 86 1003.5
20260505181523 61 0.0 0.0 0.00 0.00 0.00 86 1003.5
20260505180521 62 0.0 0.0 0.00 0.00 0.00 86 1003.6
20260505175521 63 0.0 0.0 0.00 0.00 0.00 86 1003.6
20260505174517 64 0.0 0.0 0.00 0.00 0.00 83 1003.4
20260505173517 65 0.0 0.0 0.00 0.00 0.00 80 1002.9
20260505172514 65 0.0 0.0 0.00 0.00 0.00 78 1002.8
20260505171512 66 0.0 0.0 0.00 0.00 0.00 77 1002.8
20260505170529 66 0.0 0.0 0.00 0.00 0.00 75 1002.8
20260505165552 67 0.0 0.0 0.00 0.00 0.00 74 1002.7
20260505164526 67 0.0 0.0 0.00 0.00 0.00 73 1002.9
20260505163505 67 0.0 0.0 0.00 0.00 0.00 73 1003.0
20260505162503 68 0.0 0.0 0.00 0.00 0.00 73 1003.1
20260505161520 68 0.0 0.0 0.00 0.00 0.00 73 1003.0
20260505160521 68 0.0 0.0 0.00 0.00 0.00 73 1003.1
20260505152448 68 0.0 0.0 0.00 0.00 0.00 73 1003.1
20260505151450 68 0.0 0.0 0.00 0.00 0.00 74 1003.2
20260505150445 68 0.0 0.0 0.00 0.00 0.00 75 1003.3
20260505140433 66 0.0 0.0 0.00 0.00 0.00 76 1003.9
20260505124418 69 0.0 0.0 0.00 0.00 0.00 72 1004.6
20260505123415 69 0.0 0.0 0.00 0.00 0.00 71 1004.6
20260505122414 69 0.0 0.0 0.00 0.00 0.00 71 1004.6
20260505121411 69 0.0 0.0 0.00 0.00 0.00 70 1004.7
20260505120451 69 0.0 0.0 0.00 0.00 0.00 69 1004.7
20260505115408 69 0.0 0.0 0.00 0.00 0.00 70 1004.7
20260505114426 70 0.0 0.0 0.00 0.00 0.00 69 1004.8
20260505113405 70 0.0 0.0 0.00 0.00 0.00 68 1004.8
20260505112422 70 0.0 0.0 0.00 0.00 0.00 67 1004.8
20260505111401 70 0.0 0.0 0.00 0.00 0.00 67 1004.9
20260505110357 70 0.0 0.0 0.00 0.00 0.00 67 1004.8
20260505101348 69 0.0 0.0 0.00 0.00 0.00 72 1005.1
20260505100346 68 0.0 0.0 0.00 0.00 0.00 74 1005.2
20260505095343 68 0.0 0.0 0.00 0.00 0.00 76 1005.2
20260505094345 67 0.0 0.0 0.00 0.00 0.00 77 1005.1
20260505093341 66 0.0 0.0 0.00 0.00 0.00 77 1005.1
20260505092338 66 0.0 0.0 0.00 0.00 0.00 78 1005.2
20260505091335 65 0.0 0.0 0.00 0.00 0.00 78 1005.3
20260505090333 65 0.0 0.0 0.00 0.00 0.00 79 1005.4
20260505085415 64 0.0 0.0 0.00 0.00 0.00 79 1005.3
20260505084351 64 0.0 0.0 0.00 0.00 0.00 80 1005.4
20260505083329 64 0.0 0.0 0.00 0.00 0.00 80 1005.5
20260505082327 63 0.0 0.0 0.00 0.00 0.00 80 1005.5
20260505081323 62 0.0 0.0 0.00 0.00 0.00 80 1005.5
20260505080321 62 0.0 0.0 0.00 0.00 0.00 80 1005.6
20260505075320 61 0.0 0.0 0.00 0.00 0.00 80 1005.6
20260505074317 61 0.0 0.0 0.00 0.00 0.00 80 1005.6
20260505073316 60 0.0 0.0 0.00 0.00 0.00 81 1005.6
20260505072316 60 0.0 0.0 0.00 0.00 0.00 81 1005.6
20260505071335 60 0.0 0.0 0.00 0.00 0.00 81 1005.7
20260505070309 59 0.0 0.0 0.00 0.00 0.00 82 1005.8
20260505065307 59 0.0 0.0 0.00 0.00 0.00 82 1005.8
20260505064307 59 0.0 0.0 0.00 0.00 0.00 83 1005.9
20260505063303 58 0.0 0.0 0.00 0.00 0.00 84 1005.9
20260505062300 58 0.0 0.0 0.00 0.00 0.00 84 1005.9
20260505061322 57 0.0 0.0 0.00 0.00 0.00 84 1005.8
20260505060259 57 0.0 0.0 0.00 0.00 0.00 84 1005.7
20260505055337 57 0.0 0.0 0.00 0.00 0.00 84 1005.7
20260505054253 56 0.0 0.0 0.00 0.00 0.00 85 1005.7
20260505053251 56 0.0 0.0 0.00 0.00 0.00 85 1005.8
20260505052250 56 0.0 0.0 0.00 0.00 0.00 85 1005.9
20260505051247 55 0.0 0.0 0.00 0.00 0.00 85 1006.0
20260505050245 55 0.0 0.0 0.00 0.00 0.00 85 1006.0
20260505041236 55 0.0 0.0 0.00 0.00 0.00 85 1005.8
20260505040233 55 0.0 0.0 0.00 0.00 0.00 85 1005.8
20260505035232 55 0.0 0.0 0.00 0.00 0.00 84 1005.8
20260505034231 55 0.0 0.0 0.00 0.00 0.00 84 1005.8
20260505033248 55 0.0 0.0 0.00 0.00 0.00 84 1005.9
20260505032227 55 0.0 0.0 0.00 0.00 0.00 84 1006.0
20260505031224 56 0.0 0.0 0.00 0.00 0.00 84 1006.1
20260505030222 56 0.0 0.0 0.00 0.00 0.00 83 1006.2
20260505025220 56 0.0 0.0 0.00 0.00 0.00 83 1006.3
20260505024216 56 0.0 0.0 0.00 0.00 0.00 83 1006.4
20260505023216 57 0.0 0.0 0.00 0.00 0.00 82 1006.6
20260505022215 57 0.0 0.0 0.00 0.00 0.00 82 1006.8
20260505021214 57 0.0 0.0 0.00 0.00 0.00 82 1006.9
20260505020211 58 0.0 0.0 0.00 0.00 0.00 81 1006.8
20260505015208 58 0.0 0.0 0.00 0.00 0.00 81 1006.8
20260505014206 58 0.0 0.0 0.00 0.00 0.00 80 1006.9
20260505013203 59 0.0 0.0 0.00 0.00 0.00 80 1007.0
20260505012200 59 0.0 0.0 0.00 0.00 0.00 79 1007.0
20260505011159 59 0.0 0.0 0.00 0.00 0.00 79 1007.2
20260505010158 59 0.0 0.0 0.00 0.00 0.00 79 1007.2
20260505005155 59 0.0 0.0 0.00 0.00 0.00 79 1007.3
20260505004153 59 0.0 0.0 0.00 0.00 0.00 79 1007.6
20260505003152 59 0.0 0.0 0.00 0.00 0.00 79 1007.8
20260505002151 60 0.0 0.0 0.00 0.00 0.00 79 1007.8